星链-36093(STARLINK-36093)

导读 | 豆包AI

STARLINK-36093是美国SpaceX星链互联网星座中的一员,于2025年12月10日发射入轨,属于星链低轨卫星互联网组网的补充卫星。它延续了星链卫星典型的低轨道运行设计,旨在为全球提供高速低延迟宽带互联网服务,尤其是覆盖偏远、网络基础设施薄弱的区域,助力星链系统完成全球组网覆盖的布局。

基本信息
目录编号:
67015
目录名称:
STARLINK-36093
国际标识:
2025-293N
轨道中心:
EARTH
卫星名称:
星链-36093
卫星全名:
星链-36093(STARLINK-36093)
卫星状态:
在轨 (已飞行140 天)
发射日期:
2025-12-10 UTC
国别 :
美国 (US)
星等 :
--
轨道信息
数据来源 国际轨道数据 AOE轨道数据
星历时间 2026-04-29T04:39:42+0800
5小时前
查看轨道信息
2026-04-23T19:00:00+0800
5天前
查看轨道信息
半长轴 6950.143km 6950.178km
偏心率 0.0002498 0.0002109
轨道倾角 70.002° 70.004°
近地点辐角 267.916° 285.785°
升交点赤经 327.929° 341.550°
平近点角 92.171° 101.286°
近地点 570.269km 570.575km
远地点 573.743km 573.507km
周期 96.106分钟 96.107分钟
每日圈数 14.983462 14.983349
详细信息
固有亮度:
5
最大亮度:
2.5
卫星平台:
Starlink V1.0
覆盖范围:
全球
运营商:
太空探索技术公司
运营商所在国:
美国
制造商(研发单位):
太空探索技术公司
制造商所在国:
美国
使用方式:
暂无
卫星简介
Starlink 计划是 SpaceX 推出的全球卫星互联网项目,通过发射低轨道卫星,为全球尤其是偏远地区提供高速、低延迟的互联网服务。自 2019 年起,Starlink 已部署数千颗卫星,旨在缩小全球数字鸿沟,推动互联网普及。该项目还为军事、航空等行业提供通信支持,带来广泛经济效益。
2D轨道图
3D轨道图
轨道高度分析图
轨道倾角分析图
轨道综合分析图
查看轨道综合分析图